Location: Kershaw
(34.5481°N, 80.5823°W)
Time: 05:43:09
(UTC+00:00)

A-11 Canister half - Pass Details

Date: 06 October 2022
Orbit: 1525 x 1683 km, 47.3° (Epoch: 08 December)

Event Time Altitude Azimuth Distance (km) Brightness Sun altitude
Rises 00:33:19 0° 302° (WNW) 4,692 12.7 -19.8°
Reaches altitude 10° 00:36:30 10° 307° (NW) 3,721 11.9 -20.5°
Maximum altitude 00:45:38 52° 23° (NNE) 1,899 9.3 -22.4°
Enters shadow 00:49:50 33° 78° (ENE) 2,426 9.5 -23.2°
